Regional Weather Roundup
Issued by NWS

Home | Current Version | Previous Version | Graphics & Text | Print | Product List | Glossary On
Versions: 1 2 3 4 5 6 7 8 9 10 11 12 13 14 15 16 17 18 19 20 21 22 23 24 25 26 27 28 29 30 31 32 33 34 35 36 37 38 39 40 41 42 43 44 45 46 47 48 49 50
000
ASUS44 KMEG 300510
RWRTN
TENNESSEE HOURLY STATE WEATHER ROUNDUP
NATIONAL WEATHER SERVICE MEMPHIS TN
1200 AM CDT SAT JUL 30 2016

TNZ002-004-019-021-049-052-054-088>092-300600-
WEST TENNESSEE

CITY           SKY/WX    TMP DP  RH WIND       PRES   REMARKS
MEMPHIS INTL   PTCLDY    73  70  90 SW5       29.98R
NWS MEMPHIS      N/A     72 N/A N/A MISG        N/A
JACKSON        CLOUDY    73  73 100 S7        29.97R
DYERSBURG      PTCLDY   N/A N/A N/A MISG        N/A
UNION CITY     CLEAR     70  70 100 CALM      29.94S
PARIS          CLEAR     68  68 100 N3        29.96R
LEXINGTON      CLEAR     72  72 100 CALM      29.95S
$$

TNZ008-025-027-028-033-062-065-066-300600-
NORTH MIDDLE TENNESSEE

CITY           SKY/WX    TMP DP  RH WIND       PRES   REMARKS
NASHVILLE      CLOUDY    75  70  84 S6        29.94F
CLARKSVILLE    PTCLDY    73  71  93 CALM      29.93F
SMYRNA         CLOUDY    73  72  97 CALM      29.95F
COOKEVILLE     MOCLDY    72  70  94 SE5       29.98F
CROSSVILLE     MOCLDY    70  68  93 S3        30.04F
$$

TNZ061-075-076-078-094-096-097-300600-
SOUTH MIDDLE TENNESSEE

CITY           SKY/WX    TMP DP  RH WIND       PRES   REMARKS
FAYETTEVILLE   PTCLDY    75  68  78 CALM      29.99F
TULLAHOMA      CLEAR     73  64  73 CALM      30.00F
WINCHESTER     CLEAR     73  72  94 CALM      30.00F
MCMINNVILLE    CLEAR     73  72  94 W3        29.99F
COLUMBIA       CLEAR    N/A N/A N/A CALM      29.95S
SHELBYVILLE    CLEAR     72  72 100 CALM      29.98F
$$

TNZ017-018-042-046-047-300600-
NORTHEAST TENNESSEE

CITY           SKY/WX    TMP DP  RH WIND       PRES   REMARKS
TRI CITIES     PTCLDY    69  67  93 CALM      30.04S
ELIZABETHTON   PTCLDY    68  68 100 CALM      30.05S
$$

TNZ012-013-036-069-073-074-300600-
CENTRAL EAST TENNESSEE

CITY           SKY/WX    TMP DP  RH WIND       PRES   REMARKS
KNOXVILLE      PTCLDY    74  72  93 CALM      29.99F
OAK RIDGE      PTCLDY    75  71  87 CALM      30.01F
GATLINBURG     CLEAR     70  70 100 CALM      30.00F
MORRISTOWN     MOCLDY    70  70 100 CALM      30.01F
$$

TNZ083-085-099-300600-
SOUTHEAST TENNESSEE

CITY           SKY/WX    TMP DP  RH WIND       PRES   REMARKS
CHATTANOOGA    CLOUDY    77  67  71 S3        29.99F
$$

SKY/WX REPORTED AS FAIR MEANS FEW OR NO CLOUDS BELOW
12 THOUSAND FEET.





USA.gov is the U.S. government's official web portal to all federal, state and local government web resources and services.